Location: Downey
(33.9400°N, 118.1326°W)
Time: 14:58:31
(UTC+00:00)

Daily predictions for brighter satellites

Satellite Brightness Start Highest point End
(mag) Time Altitude Azimuth Time Altitude Azimuth Time Altitude Azimuth
ATLAS 2AS CENTAUR R/B 3.9 12:32:35 32° NNW 12:32:35 32° NNW 12:37:52 10° NNE
Cosmos 962 Rocket 4.4 12:29:28 38° N 12:32:07 87° E 12:38:28 10° S
Lacrosse 5 3.9 12:35:14 17° N 12:35:14 17° N 12:36:41 10° NNE
Cosmos 2360 Rocket 2.8 12:30:20 10° S 12:35:50 55° ESE 12:41:22 10° NNE
SL-16 R/B 3.3 12:40:00 30° N 12:40:00 30° N 12:42:55 10° NNE
USA 238 4.5 12:47:32 36° SW 12:47:32 36° SW 12:53:01 10° S
Milstar 3 4.5 12:37:30 16° SW 12:46:32 39° SSE 12:53:46 10° E
Okean O Rocket 3.9 12:46:16 10° NE 12:49:52 24° E 12:53:25 10° SSE
COSMO-SKYMED 1 3.7 12:46:34 10° SE 12:50:39 42° ENE 12:54:45 10° N
Cosmos 1328 4.2 12:57:37 52° S 12:57:37 52° S 13:00:38 10° S
OAO 1 4.4 12:56:06 65° WNW 12:56:56 86° N 13:02:26 10° E
SL-8 Rocket 3.8 12:52:54 10° N 12:59:05 87° W 13:05:14 10° S
Timation 1 Rocket 4.3 12:58:47 50° WNW 13:00:01 60° WSW 13:05:54 10° S
Cosmos 1624 Rocket 4.2 12:58:34 17° N 13:02:34 68° ENE 13:07:42 10° SSE
MOS 1-B 4.5 12:59:54 10° NNE 13:05:43 75° ESE 13:11:30 10° S
METEOR-M 4.2 13:00:55 10° NNE 13:06:17 79° ESE 13:11:37 10° S
Cosmos 2237 4.1 13:01:26 10° SSW 13:07:09 81° WNW 13:12:53 10° NNE
Cosmos 2181 Rocket 4.1 13:02:59 10° SSW 13:08:59 51° W 13:15:09 10° N
Orbus 7S? 4.5 13:07:28 31° NNW 13:09:19 60° NE 13:17:29 10° SE
ALOS 2.1 13:06:03 10° N 13:10:44 87° WNW 13:15:23 10° SSW
Meteosat 1 Rocket2 4.0 13:10:04 30° SSW 13:11:15 36° S 13:14:45 10° ESE
RESURS DK-1 4.5 13:16:52 15° N 13:16:52 15° N 13:17:44 10° N
Cosmos 1703 3.6 13:16:41 44° SW 13:16:41 44° SW 13:19:42 10° S
COSMOS 2428 4.3 13:11:58 10° S 13:17:08 37° ESE 13:22:20 10° NE
Cosmos 2056 Rocket 3.5 13:14:10 13° NNW 13:19:09 86° WSW 13:24:32 10° SSE
CZ-3A R/B 4.3 13:15:41 21° WSW 13:21:47 49° S 14:05:17 10° ESE
ATLAS 3B R/B 2.7 13:23:03 19° NW 13:28:07 65° WSW 13:35:03 10° SSE
CZ-3 R/B 3.1 13:19:34 22° W 13:33:17 55° SSW 13:39:39 10° SE
Nadezhda 3 Rocket 4.1 13:27:24 10° S 13:33:31 76° E 13:39:42 10° N
Cosmos 864 Rocket 4.5 13:28:09 10° NNW 13:34:16 60° W 13:40:26 10° S
GPS 2-04 Rocket1 4.2 13:32:10 12° SSW 13:34:51 27° SSE 13:37:55 10° E
Cosmos 2322 Rocket 3.4 13:37:11 21° NW 13:37:11 21° NW 13:41:10 10° N
PAYLOAD B 4.2 13:32:57 10° N 13:38:33 70° WNW 13:44:05 10° SSW
SKYMED 2 3.7 13:34:27 10° S 13:38:38 48° W 13:42:51 10° NNW
Milstar 3 Cent rocket 4.2 13:23:56 16° WSW 13:38:58 67° S 13:47:16 10° E
Cosmos 2263 Rocket 3.1 13:37:53 24° WNW 13:39:27 27° WSW 13:44:07 10° SSW
Cosmos 1812 Rocket 3.5 13:37:16 10° S 13:41:38 89° W 13:46:05 10° N
Cosmos 1340 Rocket 2.7 13:38:39 10° S 13:42:32 86° E 13:46:28 10° N
Cosmos 1300 2.7 13:39:04 10° SSW 13:42:48 54° W 13:46:33 10° N
CENTAUR R/B 3.7 13:38:05 16° NW 13:44:06 39° WSW 13:51:57 10° S
Hubble Space Telescope 3.1 13:41:52 10° SSW 13:44:48 19° SSE 13:47:44 10° ESE
Cosmos 2218 Rocket 4.4 13:42:41 10° NNW 13:48:30 40° W 13:54:15 10° SSW
Cosmos 1844 Rocket 3.1 13:44:12 10° NNW 13:49:49 66° ENE 13:55:25 10° SSE
Lacrosse 5 rocket 4.0 13:48:20 10° N 13:50:30 13° NNE 13:52:38 10° ENE
Cosmos 1455 4.4 13:50:56 10° SSE 13:54:20 30° E 13:57:45 10° NNE
Meteor 2-1 Rocket 4.3 13:53:15 10° S 13:58:52 86° E 14:04:26 10° N
H-2A R/B 2.9 13:56:15 10° NNE 14:00:07 77° E 14:03:56 10° S
Cosmos 1461 2.8 13:56:53 10° SSW 14:00:46 81° ESE 14:04:44 10° NNE
Cosmos 1452 Rocket 3.6 13:55:46 10° NNW 14:01:02 80° ENE 14:06:16 10° SSE
SMAP 3.4 14:00:01 10° NNE 14:04:40 71° ESE 14:09:17 10° S
Cosmos 2333 Rocket 2.2 13:59:15 10° SSW 14:05:00 74° WNW 14:10:47 10° NNE
FENGYUN 3A 4.5 14:02:09 10° NNW 14:06:40 27° WNW 14:11:09 10° SW
FALCON 9 DEB 3.9 14:07:28 13° WNW 14:10:16 38° SW 14:13:32 10° SSE
Cosmos 1076 Rocket 3.5 14:06:27 10° N 14:10:49 77° W 14:15:08 10° S
CZ-4C R/B 4.2 14:11:09 10° S 14:15:14 30° ESE 14:19:48 10° NE
NOSS 7 (H) 4.5 14:15:31 10° SSW 14:19:21 84° ESE 14:22:28 10° NNE
Cosmos 2360 Rocket 3.5 14:16:19 10° W 14:20:10 18° WNW 14:24:01 10° NNW
Cosmos 2151 4.3 14:16:03 10° N 14:20:11 45° E 14:24:18 10° SSE
Cosmos 2219 Rocket 2.3 14:15:51 10° SW 14:21:22 54° WNW 14:26:57 10° NNE
Cosmos 1420 Rocket 4.4 14:19:05 10° NNW 14:24:05 43° WSW 14:29:05 10° S
Cosmos 2058 3.0 14:21:21 10° NNW 14:25:30 57° W 14:29:37 10° S
Cosmos 1892 2.7 14:22:14 10° N 14:26:01 88° E 14:29:47 10° S
Cosmos 1980 4.5 14:20:31 10° S 14:26:03 60° ESE 14:31:38 10° NNE
Okean O Rocket 2.7 14:22:31 10° NNW 14:26:05 24° WNW 14:29:37 10° WSW
COSMO-SKYMED 1 4.4 14:24:55 10° WSW 14:26:58 13° W 14:28:59 10° WNW
Okean 3 Rocket 4.4 14:22:45 10° N 14:27:15 59° E 14:31:41 10° SSE
Cosmos 1408 4.1 14:24:18 10° N 14:27:49 41° E 14:31:18 10° SSE
